User: anonymous   Login
Location: Zagreb
(45.8000°N, 16.0000°E)
Time: 16:22:28
(UTC+02:00)
Language:

Envisat - Orbit

View from above orbital plane
View from above orbital plane
View from above satellite
View from above satellite

Ground track
Ground track

The orbit data is extracted from the following two-line orbital elements,

1 27386U 02009A   22278.93824632  .00000294  00000-0  11063-3 0  9994
2 27386  98.1969 254.9293 0001202  86.7556 330.7687 14.38161885 79416
Epoch (UTC): 05 October 2022 22:31:04
Eccentricity: 0.0001202
inclination: 98.1969°
perigee height: 764 km
apogee height: 765 km
right ascension of ascending node: 254.9293°
argument of perigee: 86.7556°
revolutions per day: 14.38161885
mean anomaly at epoch: 330.7687°
orbit number at epoch: 7941

The dashed part of the orbit path shows where the satellite is in the earth's shadow,  

DLR